Regional Weather Roundup
Issued by NWS Albany, NY

Home | Current Version | Previous Version | Text Only | Print | Product List | Glossary On
Versions: 1 2 3 4 5 6 7 8 9 10 11 12 13 14 15 16 17 18 19 20 21 22 23 24 25 26 27 28 29 30 31 32 33 34 35 36 37 38 39 40 41 42 43 44 45 46 47 48 49 50
000
ASUS41 KALY 272110
RWRALY

NEW YORK STATE HOURLY WEATHER ROUNDUP
NATIONAL WEATHER SERVICE ALBANY NY
400 PM EST TUE JAN 27 2015

NOTE: "FAIR" INDICATES FEW OR NO CLOUDS BELOW 12,000 FEET WITH NO
SIGNIFICANT WEATHER AND/OR NO OBSTRUCTIONS TO VISIBILITY.

NYZ032-033-038>043-046>054-057>066-NYZ062>081-272200-
EAST


CITY           SKY/WX    TMP DP  RH WIND       PRES   REMARKS
ALBANY         LGT SNOW  12   5  73 N12       29.82R WCI  -2
GLENS FALLS    MOCLDY    13   0  56 NE15      29.84R WCI  -3
POUGHKEEPSIE   CLOUDY    22  12  65 N9G23     29.70S WCI  12
NEWBURGH       CLOUDY    23  18  80 N12       29.68  WCI  12
MONTGOMERY     MOCLDY    24  16  71 NE6       29.67R WCI  17
WHITE PLAINS   CLOUDY    22  13  68 N20G29    29.64R WCI   7
ISLIP          CLOUDY    23  13  65 MISG      29.60R
NEW YORK CITY  PTSUNNY   26  17  68 N15       29.66R WCI  14
CENTRAL PARK   PTSUNNY   30  17  58 VRB7      29.67S WCI  23
$$

NYZ005>009-017-018-044>046-055-056-272200-
CENTRAL


CITY           SKY/WX    TMP DP  RH WIND       PRES   REMARKS
FULTON         SUNNY     15   0  51 N14G24    29.98R WCI   0
SYRACUSE       PTSUNNY   13   1  59 NW17      29.96R WCI  -4
ROME           CLOUDY    17   0  47 N13       29.92R WCI   4
ELMIRA         PTSUNNY   15   5  64 NW10G21   29.93R WCI   2
BINGHAMTON     MOSUNNY   12   3  67 NW13      29.78R WCI  -3
MONTICELLO     PTSUNNY   19  12  73 NW13G21   29.67S WCI   7
$$

NYZ026>034-041>043-272200-
NORTH


CITY           SKY/WX    TMP DP  RH WIND       PRES   REMARKS
WATERTOWN      CLEAR     15  -2  46 N16       30.02R WCI  -1
FORT DRUM      NOT AVBL
MASSENA        PTCLDY    12  -5  46 NE10      30.07S WCI  -1
SARANAC LAKE   CLOUDY     6  -5  60 N9        29.82R WCI  -8
PLATTSBURGH    SNOW       9   2  73 N22G35    29.98R VSB 1/2 WCI -11
$$

NYZ001>004-010>016-019>021-272200-
WEST


CITY           SKY/WX    TMP DP  RH WIND       PRES   REMARKS
NIAGARA FALLS  PTSUNNY   18   5  57 N10       30.06R WCI   6
BUFFALO        PTSUNNY   17   5  59 N13       30.04R WCI   4
DUNKIRK        CLOUDY    18  10  71 NW9       30.06R WCI   7
JAMESTOWN      CLOUDY    14   9  79 N12G17    29.94R WCI   0
WELLSVILLE     CLOUDY    15   5  64 N14G20    29.86R WCI   0
ROCHESTER      MOSUNNY   18   3  52 N9        30.04R WCI   7
PENN YAN       CLOUDY    13   4  67 NW15      29.97R WCI  -3
$$

             KEY
       WCI = WIND CHILL INDEX
       VSB = VISIBILITY
       HX  = HEAT INDEX
$$


USA.gov is the U.S. government's official web portal to all federal, state and local government web resources and services.